User: anonymous   Login
Location: Eurasberg
(48.3353°N, 11.0839°E)
Time: 00:59:30
(UTC+00:00)
Language:

Cosmos 921 Rocket - Orbit

View from above orbital plane
View from above orbital plane
View from above satellite
View from above satellite

Ground track
Ground track

The orbit is defined by the following mean orbital elements,

1 10096U          26070.51849323 +.00000000 +00000-0 +80791-4 0 00008
2 10096  75.8307  87.1241 0041029 350.9019   9.1425 14.92010354    04
Epoch (UTC): 11 March 2026 12:26:37
Eccentricity: 0.0041029
inclination: 75.8307°
perigee height: 563 km
apogee height: 620 km
right ascension of ascending node: 87.1241°
argument of perigee: 350.9019°
revolutions per day: 14.92010354
mean anomaly at epoch: 9.1425°

The dashed part of the orbit path shows where the satellite is in the earth's shadow,  

DLR